Orbital Elements at Epoch 2459200.5 (2020-Dec-17.0) TDB
Reference: JPL 16 (heliocentric ecliptic J2000)
Element | Value | Uncertainty (1-sigma) | Units |
e | .2018362192273598 | 4.6424e-08 | |
a | 2.17010482859766 | 7.507e-09 | au |
q | 1.732099074666471 | 9.9981e-08 | au |
i | 3.13110727403373 | 5.8097e-06 | deg |
node | 208.931020958141 | 7.1379e-05 | deg |
peri | 108.7218964009138 | 7.2736e-05 | deg |
M | 278.9931077704419 | 1.4482e-05 | deg |
tp | 2459463.247726665936 (2021-Sep-05.74772667) | 4.7371e-05 | TDB |
period | 1167.668318044953 3.20 | 6.0589e-06 1.659e-08 | d yr |
n | .3083067292625993 | 1.5998e-09 | deg/d |
Q | 2.608110582528849 | 9.0222e-09 | au |
|
| | Orbit Determination Parameters
Additional Information
|